Temp
-7 -7 -7 -7 -7 -7 -7 -7 -7 -7 -7 -7 -7 -7 -7 -7 -7 -7 -7 -8 -8 -8 -8 -8 -8 -8 -8 -8 -8 -8 -8 -8 -8 -8 -8 -8 -8 -8 -8 -8 -8 -8
-6 -6 -7 -7 -7 -7 -7 -7 -7 -7 -7 -7 -7 -7 -7 -7 -7 -7 -8 -8 -8 -8 -8 -8 -8 -8 -8 -8 -8 -8 -8 -8 -8 -8 -8 -8 -8 -8 -8 -8 -8 -8
-6 -6 -7 -7 -7 -7 -7 -7 -7 -7 -7 -7 -7 -7 -7 -7 -7 -8 -8 -8 -8 -8 -8 -8 -8 -8 -8 -8 -8 -8 -8 -8 -8 -8 -8 -8 -8 -8 -8 -8 -8 -8
-6 -6 -6 -6 -7 -7 -7 -7 -7 -7 -7 -7 -7 -7 -7 -8 -8 -8 -8 -8 -8 -8 -8 -8 -8 -8 -8 -8 -8 -8 -8 -8 -8 -8 -8 -9 -9 -8 -8 -8 -8 -9
-6 -6 -6 -6 -7 -7 -7 -7 -7 -7 -7 -7 -7 -7 -7 -8 -8 -8 -8 -8 -8 -9 -9 -9 -9 -9 -9 -9 -9 -8 -8 -8 -8 -8 -9 -9 -9 -9 -9 -9 -9 -9
-6 -6 -7 -7 -7 -7 -7 -7 -7 -7 -7 -7 -7 -7 -8 -8 -8 -8 -8 -8 -8 -8 -9 -9 -9 -9 -9 -9 -9 -9 -9 -9 -9 -9 -9 -9 -9 -9 -9 -9 -9 -9
-6 -7 -7 -7 -7 -7 -7 -7 -7 -7 -7 -7 -7 -8 -8 -8 -8 -8 -8 -8 -8 -9 -9 -9 -9 -9 -9 -9 -9 -9 -9 -9 -9 -9 -9 -9 -9 -9 -9 -9 -9 -9
-7 -7 -7 -7 -7 -7 -7 -7 -7 -7 -8 -8 -7 -8 -8 -8 -8 -8 -8 -8 -8 -8 -8 -9 -9 -9 -9 -9 -9 -9 -10 -9 -9 -10 -9 -9 -10 -10 -10 -9 -9 -9
-7 -7 -7 -7 -7 -7 -7 -7 -7 -7 -8 -8 -7 -8 -8 -8 -8 -8 -8 -8 -8 -8 -8 -8 -8 -9 -9 -9 -9 -9 -10 -10 -10 -10 -10 -10 -10 -10 -10 -10 -10 -9
-7 -7 -7 -7 -7 -7 -7 -7 -7 -7 -8 -8 -7 -7 -8 -8 -8 -8 -8 -8 -8 -8 -8 -8 -8 -9 -9 -9 -9 -9 -10 -10 -10 -10 -10 -10 -10 -10 -10 -10 -10 -10
-7 -7 -7 -7 -7 -7 -7 -7 -7 -8 -8 -8 -8 -7 -8 -8 -8 -8 -8 -8 -8 -8 -8 -8 -8 -9 -9 -9 -9 -9 -9 -10 -10 -10 -10 -10 -10 -10 -10 -10 -10 -10
-7 -7 -7 -7 -7 -7 -7 -7 -8 -8 -8 -8 -8 -8 -8 -8 -8 -8 -8 -8 -8 -8 -8 -8 -8 -8 -9 -9 -9 -9 -9 -9 -10 -10 -10 -10 -11 -10 -10 -10 -10 -10
-7 -7 -7 -7 -7 -7 -7 -7 -8 -8 -8 -8 -8 -8 -8 -8 -8 -8 -8 -8 -8 -8 -9 -9 -8 -9 -9 -9 -9 -9 -10 -10 -10 -10 -10 -11 -11 -10 -10 -10 -10 -10
-7 -7 -7 -7 -7 -7 -7 -7 -8 -8 -8 -8 -8 -8 -8 -8 -8 -8 -8 -8 -8 -9 -9 -9 -9 -9 -9 -9 -9 -9 -10 -10 -10 -10 -10 -11 -11 -11 -10 -10 -10 -10
-7 -7 -7 -7 -7 -7 -7 -8 -8 -8 -8 -8 -8 -8 -8 -8 -8 -8 -8 -8 -8 -8 -9 -9 -9 -9 -9 -9 -9 -9 -10 -10 -10 -10 -10 -10 -11 -11 -10 -10 -10 -10
-7 -7 -7 -7 -7 -8 -8 -8 -8 -8 -8 -8 -9 -9 -9 -9 -8 -8 -8 -8 -8 -8 -9 -9 -9 -9 -9 -9 -9 -9 -10 -10 -10 -10 -10 -10 -10 -11 -11 -11 -11 -11
-7 -8 -8 -8 -8 -8 -8 -8 -8 -8 -8 -8 -9 -9 -9 -9 -9 -9 -9 -9 -9 -9 -9 -9 -9 -9 -9 -9 -9 -9 -9 -10 -10 -10 -10 -10 -10 -11 -11 -11 -11 -11
-8 -8 -8 -8 -8 -8 -8 -8 -8 -8 -8 -8 -9 -9 -9 -9 -9 -9 -9 -9 -9 -9 -9 -9 -9 -9 -9 -9 -9 -9 -9 -10 -10 -10 -10 -10 -11 -11 -11 -11 -11 -11
-8 -8 -8 -8 -8 -8 -8 -8 -8 -9 -9 -9 -9 -9 -9 -9 -9 -9 -10 -9 -9 -9 -9 -9 -9 -9 -9 -9 -9 -9 -9 -9 -10 -10 -10 -10 -11 -11 -11 -11 -11 -11
-8 -8 -8 -8 -8 -8 -9 -9 -9 -9 -9 -9 -9 -9 -9 -10 -10 -10 -10 -9 -9 -9 -9 -9 -9 -9 -9 -9 -9 -9 -9 -9 -9 -10 -10 -11 -11 -11 -11 -11 -10 -10
-8 -8 -8 -8 -8 -9 -9 -9 -9 -9 -9 -9 -9 -9 -10 -10 -10 -10 -10 -10 -10 -10 -9 -9 -9 -9 -9 -9 -9 -9 -9 -9 -9 -9 -10 -11 -11 -11 -11 -11 -10 -10
-8 -8 -8 -8 -8 -9 -9 -9 -9 -9 -9 -9 -9 -10 -10 -10 -10 -10 -10 -10 -10 -10 -9 -9 -9 -9 -9 -9 -9 -9 -9 -9 -9 -9 -10 -11 -11 -11 -11 -11 -11 -11
-8 -8 -8 -8 -9 -9 -9 -9 -9 -9 -9 -9 -9 -10 -10 -10 -10 -10 -10 -10 -10 -10 -10 -9 -9 -9 -9 -9 -9 -9 -9 -9 -10 -10 -10 -11 -11 -11 -11 -11 -11 -11
-8 -8 -8 -8 -9 -9 -9 -9 -9 -9 -9 -9 -10 -10 -10 -10 -10 -10 -10 -10 -10 -10 -10 -9 -9 -9 -9 -9 -9 -9 -9 -9 -10 -10 -10 -10 -11 -11 -11 -11 -11 -11
-8 -8 -8 -8 -9 -9 -9 -9 -9 -9 -9 -10 -10 -10 -10 -10 -10 -10 -10 -10 -10 -10 -9 -9 -9 -9 -9 -9 -9 -9 -10 -10 -10 -10 -10 -10 -10 -11 -11 -11 -11 -11
-9 -8 -8 -9 -9 -9 -9 -9 -9 -9 -9 -10 -10 -10 -10 -10 -10 -10 -10 -10 -10 -10 -9 -9 -9 -9 -9 -9 -9 -9 -10 -10 -10 -10 -10 -10 -10 -11 -11 -11 -11 -12
Height
5911 5911 5911 5911 5911 5910 5910 5910 5910 5909 5909 5909 5909 5908 5907 5907 5906 5905 5905 5904 5903 5902 5901 5900 5899 5897 5896 5895 5894 5893 5892 5891 5890 5889 5889 5888 5887 5886 5885 5884 5884 5883
5909 5909 5909 5909 5909 5908 5908 5908 5908 5908 5907 5907 5906 5906 5905 5904 5903 5902 5902 5901 5900 5899 5898 5897 5897 5896 5895 5893 5892 5891 5890 5889 5888 5887 5886 5886 5885 5884 5883 5882 5881 5880
5907 5907 5907 5907 5907 5907 5906 5907 5906 5906 5905 5905 5904 5903 5903 5902 5901 5900 5899 5898 5897 5896 5896 5895 5894 5893 5892 5891 5890 5889 5887 5886 5885 5884 5884 5883 5882 5881 5880 5879 5878 5877
5905 5905 5905 5905 5905 5905 5905 5905 5905 5904 5903 5903 5903 5901 5900 5899 5898 5897 5896 5896 5895 5894 5893 5892 5891 5890 5889 5889 5887 5886 5885 5883 5882 5881 5881 5880 5879 5878 5877 5876 5875 5875
5904 5903 5903 5903 5903 5903 5903 5903 5902 5902 5901 5901 5901 5900 5899 5898 5896 5895 5894 5893 5892 5891 5890 5889 5888 5887 5886 5885 5884 5883 5882 5881 5879 5878 5878 5877 5876 5875 5874 5873 5872 5871
5902 5901 5901 5901 5901 5901 5901 5901 5900 5900 5900 5900 5899 5898 5897 5896 5895 5894 5892 5890 5889 5888 5887 5886 5885 5884 5883 5882 5881 5880 5879 5878 5876 5875 5875 5874 5873 5872 5871 5870 5869 5868
5899 5899 5899 5899 5899 5899 5899 5899 5899 5899 5898 5898 5897 5896 5895 5894 5892 5891 5889 5887 5886 5884 5883 5882 5881 5879 5878 5878 5877 5876 5875 5874 5873 5872 5871 5870 5869 5869 5868 5867 5866 5865
5897 5897 5897 5897 5897 5897 5898 5898 5897 5897 5896 5895 5894 5893 5892 5891 5888 5887 5886 5885 5883 5881 5879 5878 5876 5875 5874 5873 5872 5871 5871 5870 5869 5868 5867 5867 5865 5865 5864 5863 5863 5861
5895 5896 5896 5896 5896 5896 5896 5896 5895 5894 5893 5892 5891 5890 5888 5887 5886 5884 5883 5881 5880 5878 5876 5874 5873 5871 5870 5869 5868 5867 5866 5866 5865 5864 5863 5863 5862 5861 5861 5860 5859 5858
5894 5894 5894 5894 5895 5894 5893 5894 5893 5891 5890 5889 5888 5888 5886 5885 5883 5881 5879 5878 5877 5875 5873 5871 5870 5868 5867 5866 5864 5863 5862 5861 5861 5860 5859 5859 5858 5857 5857 5856 5855 5855
5892 5893 5893 5893 5892 5892 5891 5891 5890 5889 5888 5886 5885 5885 5884 5882 5880 5878 5876 5875 5873 5871 5870 5869 5867 5865 5864 5863 5861 5860 5859 5858 5857 5856 5856 5855 5855 5854 5853 5852 5851 5851
5891 5892 5891 5891 5890 5890 5889 5889 5888 5887 5886 5885 5883 5882 5881 5879 5878 5876 5874 5873 5871 5869 5868 5866 5864 5862 5860 5859 5858 5856 5855 5854 5853 5852 5852 5852 5851 5851 5850 5848 5848 5847
5890 5890 5889 5889 5888 5888 5887 5886 5886 5885 5884 5883 5881 5880 5878 5877 5875 5874 5872 5870 5868 5867 5865 5863 5861 5859 5857 5855 5854 5853 5852 5851 5849 5848 5848 5848 5848 5847 5846 5845 5844 5843
5888 5887 5887 5887 5886 5886 5885 5884 5883 5882 5881 5880 5879 5877 5876 5874 5873 5871 5869 5867 5865 5863 5861 5859 5857 5855 5854 5852 5850 5848 5848 5847 5846 5845 5844 5844 5844 5843 5842 5841 5839 5838
5885 5885 5885 5885 5884 5884 5882 5881 5880 5879 5878 5877 5876 5874 5873 5871 5869 5867 5865 5863 5861 5859 5857 5855 5853 5852 5850 5848 5846 5844 5844 5843 5842 5841 5840 5840 5839 5838 5837 5836 5835 5833
5882 5881 5881 5881 5881 5881 5880 5879 5877 5876 5875 5874 5872 5870 5869 5868 5866 5864 5862 5860 5857 5855 5853 5851 5850 5848 5846 5844 5842 5840 5840 5840 5839 5838 5837 5836 5835 5834 5833 5832 5830 5829
5878 5878 5877 5877 5877 5877 5877 5876 5875 5874 5872 5870 5869 5867 5865 5864 5862 5860 5858 5856 5854 5851 5849 5848 5847 5844 5842 5840 5837 5835 5835 5835 5835 5834 5833 5832 5830 5829 5828 5827 5826 5824
5875 5875 5874 5873 5872 5872 5873 5872 5871 5870 5869 5867 5865 5863 5861 5860 5858 5855 5853 5852 5850 5847 5845 5844 5843 5841 5838 5836 5833 5831 5830 5830 5829 5829 5828 5827 5826 5825 5824 5823 5822 5820
5872 5872 5871 5870 5870 5869 5868 5868 5867 5866 5865 5863 5861 5859 5857 5856 5854 5851 5849 5847 5845 5844 5841 5839 5838 5837 5834 5832 5829 5827 5826 5825 5824 5824 5824 5824 5822 5821 5819 5818 5817 5816
5869 5869 5868 5867 5867 5866 5865 5864 5863 5861 5860 5858 5857 5855 5853 5852 5849 5847 5845 5842 5840 5839 5837 5835 5834 5832 5830 5828 5825 5823 5821 5821 5820 5821 5820 5819 5818 5816 5815 5813 5812 5811
5865 5865 5864 5864 5863 5862 5861 5860 5858 5857 5856 5854 5852 5850 5849 5847 5845 5843 5840 5838 5835 5834 5832 5831 5830 5828 5826 5824 5821 5818 5817 5816 5816 5816 5816 5814 5813 5811 5810 5809 5808 5807
5861 5861 5860 5859 5859 5858 5856 5855 5853 5852 5851 5849 5847 5845 5843 5842 5841 5838 5836 5833 5831 5829 5828 5827 5825 5823 5821 5819 5816 5813 5811 5811 5811 5811 5811 5809 5808 5806 5805 5804 5803 5802
5857 5857 5856 5855 5854 5853 5852 5850 5849 5847 5845 5844 5842 5839 5837 5836 5835 5833 5830 5828 5826 5824 5823 5822 5819 5817 5815 5814 5811 5808 5806 5805 5805 5805 5806 5804 5802 5801 5800 5799 5799 5798
5853 5853 5851 5850 5850 5848 5847 5845 5844 5842 5840 5839 5837 5835 5832 5830 5828 5827 5824 5821 5819 5818 5817 5816 5813 5811 5810 5809 5806 5803 5801 5800 5799 5800 5800 5798 5797 5796 5795 5794 5794 5793
5849 5848 5848 5847 5845 5844 5842 5841 5839 5836 5835 5833 5832 5830 5828 5824 5822 5820 5818 5815 5813 5812 5810 5809 5807 5806 5805 5803 5801 5799 5797 5795 5794 5795 5795 5794 5793 5792 5790 5789 5788 5787
5844 5844 5843 5842 5841 5839 5837 5835 5834 5832 5829 5828 5826 5825 5822 5819 5815 5813 5812 5810 5809 5807 5806 5805 5803 5801 5800 5798 5797 5796 5793 5789 5789 5791 5791 5791 5789 5786 5784 5784 5783 5782
Wind_Speed
20 20 20 20 19 18 18 18 18 18 18 18 18 19 19 19 20 21 22 23 24 23 22 21 21 21 21 22 22 21 21 20 20 19 19 20 20 20 20 20 20 21
21 20 20 20 19 19 19 19 19 19 19 18 19 20 20 20 21 22 23 24 25 24 24 24 22 21 21 22 23 22 22 22 21 21 20 20 21 21 21 21 21 21
22 21 20 21 20 20 20 19 19 19 19 19 19 21 21 22 23 24 24 25 25 25 25 25 25 23 22 23 23 23 23 23 23 23 22 22 22 22 22 22 21 21
21 21 21 21 20 20 19 18 18 19 18 18 19 21 22 23 24 25 26 26 26 26 26 27 27 26 25 24 24 24 24 24 24 24 23 23 24 24 24 23 22 21
20 20 20 20 18 17 17 17 18 18 18 19 22 24 24 25 27 28 29 29 29 28 28 28 28 29 29 27 26 26 26 25 25 25 24 24 25 25 26 25 23 22
18 18 17 16 15 16 17 18 19 19 20 22 24 25 26 28 29 30 31 32 32 32 32 31 31 31 31 30 30 28 27 27 27 27 26 26 27 27 27 26 25 24
17 16 15 15 15 16 17 18 19 19 21 24 25 25 27 29 31 31 31 31 31 32 33 34 34 33 31 32 32 31 31 31 31 30 29 29 29 29 28 28 27 26
16 15 15 15 16 17 18 17 17 18 20 22 23 23 25 27 29 30 30 30 30 31 32 33 34 34 34 36 36 34 33 33 33 31 31 31 31 31 30 29 28 27
15 15 16 17 17 18 17 16 16 18 19 21 23 23 24 26 27 28 27 28 28 29 29 30 31 32 35 37 38 36 34 33 32 31 31 32 32 31 30 29 29 29
16 16 17 17 18 18 17 15 16 18 20 22 25 25 25 27 28 27 26 26 27 27 29 30 30 30 31 34 36 35 34 33 32 30 31 31 31 31 31 30 30 30
17 17 17 17 18 18 17 16 17 19 22 25 27 26 26 27 28 28 26 26 28 29 30 31 31 30 29 30 32 33 33 34 33 31 30 30 30 31 32 31 31 31
18 18 18 18 17 17 16 17 18 20 22 25 27 28 28 28 29 29 28 28 30 30 32 33 33 32 31 31 31 30 31 34 34 32 31 30 30 31 32 33 32 32
17 16 16 16 16 16 17 19 19 21 23 25 26 28 29 30 30 31 30 31 32 32 33 34 34 34 32 31 31 29 29 31 33 32 31 30 30 30 32 33 33 32
15 14 14 15 15 17 20 21 20 21 24 26 28 29 30 30 31 31 32 34 34 35 36 35 34 34 33 33 32 30 28 29 31 32 31 30 29 29 31 32 32 33
15 15 15 15 16 18 20 22 22 23 25 27 30 31 32 32 32 32 33 35 37 38 38 36 35 34 33 34 35 33 29 28 30 32 31 29 29 30 32 32 32 34
15 15 15 16 16 17 19 21 23 25 27 30 32 34 35 35 34 34 34 36 38 40 41 38 35 34 35 36 37 35 31 29 31 33 31 30 31 32 33 32 33 35
14 15 16 18 19 19 20 22 24 27 29 32 34 37 38 39 38 38 37 37 38 41 42 39 35 35 37 38 39 38 35 31 31 32 32 31 31 31 31 31 32 33
16 17 18 20 22 24 25 26 27 29 31 34 36 39 40 41 41 40 40 40 39 39 40 38 35 35 37 38 40 41 38 35 33 32 31 28 28 29 29 30 31 32
20 21 22 23 25 27 28 29 30 32 33 36 38 40 42 43 43 42 41 41 40 38 38 36 35 36 37 39 41 41 40 38 34 30 26 25 26 28 29 30 31 32
23 24 25 26 28 29 30 32 33 34 36 38 40 42 43 44 44 42 41 42 41 38 37 35 35 38 39 40 41 41 41 39 35 28 24 24 27 28 30 32 33 33
26 27 28 29 30 32 33 34 36 37 39 40 41 43 44 44 44 43 42 43 42 39 37 36 35 38 39 40 42 43 41 40 37 31 27 26 28 29 31 33 34 34
29 30 31 32 33 35 36 38 39 40 41 42 44 45 45 43 44 44 45 46 44 40 38 37 36 36 37 39 43 44 42 40 39 35 31 30 30 31 33 35 35 35
31 32 33 35 36 38 40 41 42 43 44 45 46 47 45 44 44 46 48 48 45 39 37 37 36 35 36 40 43 45 43 42 41 39 36 34 34 34 36 37 36 35
33 34 36 38 39 42 44 44 45 47 48 48 48 47 46 46 47 49 50 47 42 38 37 37 37 37 37 40 44 45 45 44 45 43 40 39 39 39 39 41 41 40
36 37 39 41 43 45 46 46 48 50 51 51 51 49 47 48 49 48 44 38 36 37 37 37 39 38 38 41 44 45 45 46 48 48 44 40 39 41 43 45 45 45
39 39 41 43 46 48 48 48 50 52 52 53 53 50 49 51 49 42 35 31 32 35 36 37 39 39 39 40 41 42 45 48 49 48 43 39 38 40 43 45 46 48
Wind_Direction
269 271 273 275 276 277 280 284 288 289 292 299 303 303 304 304 304 304 305 304 304 305 303 301 301 299 299 298 297 296 294 290 285 283 283 284 284 285 287 289 291 294
267 268 270 273 275 278 281 285 288 290 297 304 308 309 309 309 308 307 307 307 306 306 304 303 301 299 298 298 297 296 294 290 285 282 283 284 284 284 285 286 288 292
266 268 269 272 274 278 282 285 289 294 302 309 311 312 313 311 310 309 308 307 306 306 304 303 301 298 297 296 295 295 293 290 286 283 284 286 285 284 284 284 286 290
267 269 270 272 276 280 284 287 291 296 303 310 312 311 311 310 308 308 307 305 304 303 302 300 299 296 294 293 293 293 293 291 288 285 285 285 285 284 283 282 284 289
272 274 274 277 281 285 287 289 292 295 302 311 312 309 306 305 304 304 303 300 299 298 296 296 295 293 290 289 289 290 291 290 288 286 284 284 285 284 283 283 284 287
278 278 279 282 285 286 287 289 291 294 303 312 315 313 311 309 307 304 301 299 299 297 293 291 291 289 287 286 287 288 288 289 287 284 283 284 285 284 283 283 283 284
279 279 280 282 283 287 293 299 301 301 306 312 317 318 317 315 310 304 302 303 305 303 299 294 290 286 283 284 288 287 286 287 285 283 282 282 283 284 283 282 283 285
276 278 280 281 286 293 300 310 315 314 314 318 324 324 320 318 314 308 303 304 308 310 309 304 296 287 284 288 291 289 285 285 286 283 281 281 283 284 282 282 285 287
274 278 280 284 291 297 302 312 319 321 324 328 332 329 321 319 318 315 310 307 308 311 312 311 303 294 290 292 293 291 285 284 286 285 281 280 284 285 282 282 286 288
274 277 281 288 293 296 302 316 324 327 329 329 330 330 325 321 319 316 314 311 310 309 310 310 307 301 297 297 297 294 287 285 287 286 282 281 284 285 284 284 286 287
274 280 286 289 292 294 303 319 326 327 327 326 326 329 328 326 323 318 313 309 309 310 311 311 309 306 302 298 296 295 293 291 288 284 281 281 283 284 285 286 287 288
279 285 288 288 290 295 304 317 324 325 326 325 326 327 326 324 322 318 311 306 305 308 310 310 310 307 302 296 293 292 295 295 291 284 281 281 281 283 286 287 288 289
285 289 290 290 293 299 304 312 319 323 324 324 324 324 322 320 317 315 310 305 303 303 304 306 305 302 299 295 292 291 293 295 293 287 283 281 281 284 287 288 288 290
288 291 293 294 296 299 303 308 314 318 319 321 321 319 318 317 314 310 306 303 301 300 300 301 299 296 296 295 293 290 288 290 291 288 284 281 281 283 288 290 290 291
285 291 294 297 299 301 304 308 312 314 315 318 319 317 316 315 312 307 302 299 299 298 297 297 295 293 293 295 296 293 288 288 291 289 283 279 278 282 288 291 291 291
287 297 304 308 312 313 312 311 311 312 313 314 316 315 315 314 311 307 302 299 296 295 294 295 294 291 290 293 295 294 289 286 289 288 282 278 278 281 285 288 288 289
292 303 310 314 319 321 320 317 314 312 311 310 311 311 312 313 312 308 305 303 298 293 292 293 292 288 287 289 292 294 290 284 281 281 280 277 277 279 282 284 285 287
291 298 303 307 311 316 318 317 315 313 310 307 306 307 309 311 311 308 306 305 300 295 293 292 289 287 286 286 288 291 290 283 275 274 275 275 276 278 279 281 284 288
287 291 295 298 302 307 310 311 310 309 308 305 304 304 306 309 309 306 304 305 302 297 293 290 286 285 285 285 285 288 290 284 275 270 272 274 275 276 278 281 285 288
287 289 291 295 298 302 304 305 303 302 303 303 302 302 303 306 307 305 302 304 304 296 290 287 284 283 284 283 283 286 288 284 276 271 271 272 273 275 278 282 284 287
289 290 291 293 296 298 299 299 298 298 299 300 301 301 300 302 305 305 303 304 303 295 288 286 283 282 282 282 281 284 286 283 276 270 268 269 271 274 277 280 283 286
290 291 292 293 294 295 296 297 298 298 300 301 300 298 298 300 303 303 303 303 301 293 287 286 284 281 281 280 279 282 283 279 274 270 266 266 269 270 274 278 281 284
288 290 291 292 294 296 297 298 299 298 299 301 300 298 297 299 302 302 302 301 297 290 284 284 284 282 282 280 279 281 281 276 271 270 267 264 265 268 271 276 279 283
285 288 290 292 295 296 297 298 298 297 297 299 300 300 298 299 301 301 301 298 292 287 284 285 284 284 284 283 282 285 284 277 272 271 267 263 264 268 272 275 278 281
282 285 288 292 294 295 295 296 296 296 296 297 299 300 298 298 300 301 299 293 286 284 286 288 288 287 286 285 285 288 287 281 275 272 268 267 268 270 273 277 278 279
279 283 287 289 291 291 291 292 293 294 296 298 299 297 297 299 300 300 295 286 282 285 288 290 290 288 285 283 286 288 287 284 280 275 273 277 278 275 277 281 281 280